Weather History for KUIN - May, 2012

Change the Weather History Date:

Wednesday, May 2, 2012

  Actual Average Record
Temperature  
Mean Temperature 73 °F 59 °F  
Max Temperature 84 °F 69 °F 90 °F (1928)
Min Temperature 62 °F 49 °F 29 °F (1908)
Degree Days  
Heating Degree Days 0 7  
Month to date heating degree days 15  
Since 1 July heating degree days 5445  
Cooling Degree Days 8 1  
Month to date cooling degree days 2  
Year to date cooling degree days 20  
Growing Degree Days 23 (Base 50)    
Moisture  
Dew Point 62 °F    
Average Humidity 73    
Maximum Humidity 88    
Minimum Humidity 49    
Precipitation  
Precipitation 0.01 in 0.12 in 1.76 in (1936)
Month to date precipitation 0.25  
Year to date precipitation 9.80  
Sea Level Pressure  
Sea Level Pressure 29.84 in    
Wind  
Wind Speed 11 mph (SSE)    
Max Wind Speed 18 mph    
Max Gust Speed 26 mph    
Visibility 10 miles    
Events Rain , Thunderstorm    
T = Trace of Precipitation, MM = Missing Value Source: NWS Daily Summary

Daily Weather History Graph

Daily Weather History Graph

Search for Another Location

Airport or City:

Trip Planner

Search our weather history database for the weather conditions in past years. The results will help you decide how hot, cold, wet, or windy it might be!

Date:

Astronomy

May. 02, 2012 Rise Set
Actual Time 6:03 AM CDT 8:00 PM CDT
Civil Twilight 5:33 AM CDT 8:30 PM CDT
Nautical Twilight 4:57 AM CDT 9:06 PM CDT
Astronomical Twilight 4:19 AM CDT 9:45 PM CDT
Moon 4:13 PM CDT (5/2) 3:33 AM CDT (5/2)
Length of Visible Light 14h 56m
Length of Day
13h 57m
Waxing Gibbous, 83% of the Moon is Illuminated
May 2
Waxing Gibbous
May 5
Full
May 12
Last Quarter
May 20
New
May 28
First Quarter

Hourly Weather History & Observations

Time (CDT) Temp. Heat Index Dew Point Humidity Pressure Visibility Wind Dir Wind Speed Gust Speed Precip Events Conditions
12:54 AM 71.1 °F - 62.1 °F 73% 29.75 in 10.0 mi South 10.4 mph - N/A   Clear
1:54 AM 71.1 °F - 62.1 °F 73% 29.74 in 10.0 mi South 10.4 mph - N/A   Clear
2:54 AM 70.0 °F - 62.1 °F 76% 29.75 in 10.0 mi South 8.1 mph - N/A   Clear
3:54 AM 70.0 °F - 62.1 °F 76% 29.76 in 10.0 mi South 10.4 mph - N/A   Clear
4:54 AM 68.0 °F - 62.1 °F 81% 29.78 in 10.0 mi South 10.4 mph - N/A   Clear
5:54 AM 68.0 °F - 62.1 °F 81% 29.78 in 10.0 mi South 11.5 mph - N/A   Clear
6:54 AM 69.1 °F - 62.1 °F 78% 29.80 in 10.0 mi SSW 11.5 mph 19.6 mph N/A   Partly Cloudy
7:54 AM 71.1 °F - 63.0 °F 75% 29.84 in 10.0 mi SW 8.1 mph - N/A   Mostly Cloudy
8:46 AM 68.0 °F - 60.8 °F 78% 29.90 in 10.0 mi NNE 12.7 mph 24.2 mph N/A   Overcast
8:54 AM 66.9 °F - 61.0 °F 81% 29.89 in 10.0 mi NNE 13.8 mph - N/A   Overcast
9:52 AM 62.6 °F - 59.0 °F 88% 29.93 in 10.0 mi NE 13.8 mph - N/A   Overcast
9:54 AM 63.0 °F - 59.0 °F 87% 29.92 in 10.0 mi NE 13.8 mph - N/A   Overcast
10:54 AM 64.9 °F - 59.0 °F 81% 29.94 in 10.0 mi East 11.5 mph - N/A   Overcast
11:33 AM 64.4 °F - 60.8 °F 88% 29.96 in 10.0 mi NE 9.2 mph - 0.01 in Rain , Thunderstorm Light Rain
11:52 AM 64.4 °F - 60.8 °F 88% 29.96 in 10.0 mi ENE 12.7 mph - 0.01 in Rain Light Rain
11:54 AM 64.0 °F - 60.1 °F 87% 29.95 in 10.0 mi ENE 13.8 mph - 0.01 in Rain Light Rain
12:14 PM 66.2 °F - 60.8 °F 83% 29.93 in 10.0 mi East 18.4 mph - 0.00 in   Overcast
12:54 PM 68.0 °F - 62.1 °F 81% 29.88 in 10.0 mi ESE 17.3 mph - 0.00 in   Clear
1:54 PM 75.9 °F - 64.9 °F 69% 29.84 in 10.0 mi SE 18.4 mph 26.5 mph N/A   Clear
2:54 PM 81.0 °F 83.8 °F 68.0 °F 65% 29.81 in 10.0 mi South 13.8 mph 23.0 mph N/A   Clear
3:54 PM 84.0 °F 87.8 °F 69.1 °F 61% 29.80 in 10.0 mi South 16.1 mph 20.7 mph N/A   Clear
4:54 PM 84.9 °F 87.1 °F 66.0 °F 53% 29.78 in 10.0 mi South 16.1 mph 25.3 mph N/A   Clear
5:54 PM 84.0 °F 84.9 °F 63.0 °F 49% 29.79 in 10.0 mi South 10.4 mph - N/A   Clear
6:54 PM 82.0 °F 83.4 °F 64.0 °F 54% 29.79 in 10.0 mi South 9.2 mph - N/A   Clear
7:54 PM 79.0 °F - 64.0 °F 60% 29.79 in 10.0 mi South 6.9 mph - N/A   Clear
8:54 PM 77.0 °F - 63.0 °F 62% 29.81 in 10.0 mi SSE 5.8 mph - N/A   Clear
9:54 PM 75.0 °F - 63.0 °F 66% 29.84 in 10.0 mi South 4.6 mph - N/A   Clear
10:54 PM 73.9 °F - 62.1 °F 66% 29.86 in 10.0 mi South 9.2 mph - N/A   Clear
11:54 PM 73.9 °F - 62.1 °F 66% 29.85 in 10.0 mi South 10.4 mph - N/A   Clear